Regional Weather Roundup
Issued by NWS

Home | Current Version | Previous Version | Text Only | Print | Product List | Glossary On
Versions: 1 2 3 4 5 6 7 8 9 10 11 12 13 14 15 16 17 18 19 20 21 22 23 24 25 26 27 28 29 30 31 32 33 34 35 36 37 38 39 40 41 42 43 44 45 46 47 48 49 50
000
ASPQ40 PGUM 022314
RWRPQ
WEATHER ROUNDUP FOR THE MARIANAS AND MICRONESIA
NATIONAL WEATHER SERVICE TIYAN GU
900 AM CHST WED JUN 03 2015

GUZ001>004-030000-
MARIANA ISLANDS-

CITY           SKY/WX    TMP DP  RH WIND       PRES   REMARKS
GUAM AIRPORT   CLOUDY    81  73  78 E9        29.90R
ANDERSEN AFB   PTSUNNY   77  72  83 E6        29.91R
ROTA AIRPORT   NOT AVBL
TINIAN AP      NOT AVBL
SAIPAN AP      LGT RAIN  79  75  89 E14       29.92R

$$

PMZ161-030000-
REPUBLIC OF PALAU-

CITY           SKY/WX    TMP DP  RH WIND       PRES   REMARKS
KOROR AP       PTSUNNY   84  77  79 E5        29.86R HX  94
KOROR WSO      CLOUDY    82  77  83 NW6       29.86R HX  91

$$

PMZ171>174-030000-
FEDERATED STATES OF MICRONESIA-

CITY           SKY/WX    TMP DP  RH WIND       PRES   REMARKS
YAP AIRPORT    PTSUNNY   86  77  74 VRB6      29.82S HX  97
CHUUK AP       CLOUDY    84  77  79 VRB5      29.83S HX  94
POHNPEI AP     CLOUDY    82  77  83 E13       29.83S HX  91
POHNPEI WSO    CLOUDY    84  77  79 NE6       29.89R HX  94
KOSRAE AP      CLOUDY    84  79  84 NW13      29.86S HX  96

$$

PMZ181-030000-
REPUBLIC OF THE MARSHALL ISLANDS-

CITY           SKY/WX    TMP DP  RH WIND       PRES   REMARKS
KWAJALEIN AP   SUNNY     86  75  70 NE15      29.87F HX  95
MAJURO AP      PTSUNNY   86  77  74 NE14      29.85  HX  97
MAJURO WSO     CLOUDY    84  77  79 NE9       29.86F HX  94

$$



USA.gov is the U.S. government's official web portal to all federal, state and local government web resources and services.